Cienfuegos, Cuba

11:12 AM CST on December 10, 2019 (GMT -0500)
Jaime Gonzalez

Weather History for MUCF - October, 2019

Change the Weather History Date:

Monday, October 28, 2019

  Actual Average (WUND) Record (WUND)
Temperature  
Mean Temperature 83 °F -  
Max Temperature 91 °F - - (-1)
Min Temperature 75 °F - - (-1)
Cooling Degree Days 18    
Growing Degree Days 33 (Base 50)    
Moisture  
Dew Point 76 °F    
Average Humidity 85    
Maximum Humidity 100    
Minimum Humidity 59    
Precipitation  
Precipitation 0.00 in - - ()
Sea Level Pressure  
Sea Level Pressure 29.98 in    
Wind  
Wind Speed 4 mph ()    
Max Wind Speed 9 mph    
Max Gust Speed -    
Visibility 6.1 miles    
Events      
Averages and records for this station are not official NWS values.
T = Trace of Precipitation, MM = Missing Value Source: Averaged Metar Reports

Daily Weather History Graph

Daily Weather History Graph

Search for Another Location

Airport or City:

Astronomy

Oct. 28, 2019 Rise Set
Actual Time 7:23 AM CDT 6:47 PM CDT
Civil Twilight 7:00 AM CDT 7:09 PM CDT
Nautical Twilight 6:34 AM CDT 7:36 PM CDT
Astronomical Twilight 6:07 AM CDT 8:02 PM CDT
Moon 7:46 AM CDT (10/28) 7:32 PM CDT (10/28)
Length of Visible Light 12h 09m
Length of Day
11h 23m
New Moon, 0% of the Moon is Illuminated
Oct 28
New Moon
Nov 4
First Quarter
Nov 12
Full
Nov 19
Last Quarter
Nov 26
New

Hourly Weather History & Observations

Time (CDT) Temp. Heat Index Dew Point Humidity Pressure Visibility Wind Dir Wind Speed Gust Speed Precip Events Conditions
12:59 AM 77.0 °F - 75.2 °F 94% 29.98 in - East 3.5 mph - N/A   Unknown
1:58 AM 77.0 °F - 75.2 °F 94% 29.98 in - East 3.5 mph - N/A   Unknown
3:59 AM 75.2 °F - 73.4 °F 94% 29.95 in - ENE 4.6 mph - N/A   Unknown
4:59 AM 75.2 °F - 73.4 °F 94% 29.95 in - ENE 4.6 mph - N/A   Unknown
5:59 AM 75.2 °F - 73.4 °F 94% 29.95 in - East 5.8 mph - N/A   Unknown
6:59 AM 75.2 °F - 73.4 °F 94% 29.98 in - ENE 5.8 mph - N/A   Unknown
7:59 AM 75.2 °F - 75.2 °F 100% 29.98 in - ENE 5.8 mph - N/A   Unknown
8:55 AM 80.6 °F 87.1 °F 77.0 °F 89% 30.01 in 5.6 mi Variable 2.3 mph - N/A   Partly Cloudy
9:50 AM 84.2 °F 94.1 °F 77.0 °F 79% 30.01 in 6.2 mi East 6.9 mph - N/A   Partly Cloudy
10:54 AM 87.8 °F 99.7 °F 77.0 °F 70% 30.04 in 6.2 mi ESE 5.8 mph - N/A   Scattered Clouds
12:50 PM 89.6 °F 99.8 °F 75.2 °F 62% 30.01 in 6.2 mi East 9.2 mph - N/A   Scattered Clouds
1:53 PM 91.4 °F 102.5 °F 75.2 °F 59% 29.98 in 6.2 mi East 5.8 mph - N/A   Scattered Clouds
2:50 PM 89.6 °F 102.2 °F 77.0 °F 66% 29.95 in 6.2 mi Variable 4.6 mph - N/A   Scattered Clouds
3:51 PM 89.6 °F 102.2 °F 77.0 °F 66% 29.92 in 6.2 mi SSW 5.8 mph - N/A   Scattered Clouds
5:59 PM 80.6 °F 86.2 °F 75.2 °F 84% 29.95 in - ENE 5.8 mph - N/A   Unknown
7:58 PM 78.8 °F - 77.0 °F 94% 29.98 in - NE 5.8 mph - N/A   Unknown
8:59 PM 78.8 °F - 77.0 °F 94% 29.98 in - ENE 4.6 mph - N/A   Unknown
9:59 PM 78.8 °F - 77.0 °F 94% 30.01 in - East 5.8 mph - N/A   Unknown
10:59 PM 78.8 °F - 77.0 °F 94% 30.01 in - East 8.1 mph - N/A   Unknown